Shepherd Bay, Nunavut

12:45 AM CDT on May 28, 2017 (GMT -0500)
Shepherd Bay

Weather History for CYUS - February, 2013

Change the Weather History Date:

Friday, February 8, 2013

  Actual Average Record
Temperature  
Mean Temperature -34 °F -  
Max Temperature -31 °F - - ()
Min Temperature -36 °F -39 °F - ()
Degree Days  
Heating Degree Days 98    
Moisture  
Dew Point -    
Average Humidity    
Maximum Humidity    
Minimum Humidity    
Precipitation  
Precipitation 0.00 in 0.01 in - ()
Sea Level Pressure  
Sea Level Pressure 29.89 in    
Wind  
Wind Speed 8 mph ()    
Max Wind Speed 13 mph    
Max Gust Speed -    
Visibility 3.7 miles    
Events      
T = Trace of Precipitation, MM = Missing Value Source: Averaged Metar Reports

Daily Weather History Graph

Daily Weather History Graph

Search for Another Location

Airport or City:

Trip Planner

Search our weather history database for the weather conditions in past years. The results will help you decide how hot, cold, wet, or windy it might be!

Date:

Astronomy

Feb. 08, 2013 Rise Set
Actual Time 9:07 AM CST 3:49 PM CST
Civil Twilight 7:58 AM CST 4:59 PM CST
Nautical Twilight 6:48 AM CST 6:09 PM CST
Astronomical Twilight 5:41 AM CST 7:16 PM CST
Moon 8:08 AM CST (2/8) 1:59 PM CST (2/8)
Length of Visible Light 9h 00m
Length of Day
6h 42m
Waning Crescent, 3% of the Moon is Illuminated
Feb 8
Waning Crescent
Feb 10
New
Feb 17
First Quarter
Feb 25
Full
Mar 4
Last Quarter

Hourly Weather History & Observations

Time (CST) Temp. Windchill Dew Point Humidity Pressure Visibility Wind Dir Wind Speed Gust Speed Precip Events Conditions
12:00 AM -31 °F - - % 29.87 in 6 mi WNW 8.1 mph - -  
12:00 AM -31.0 °F -51.9 °F - N/A% 29.87 in 6.0 mi WNW 8.1 mph - N/A   Unknown
1:00 AM -31.0 °F -57.1 °F - N/A% 29.87 in 6.0 mi WNW 12.7 mph - N/A   Unknown
2:00 AM -32.8 °F -52.4 °F - N/A% 29.87 in 9.0 mi West 6.9 mph - N/A   Unknown
3:00 AM -34 °F - - % 29.88 in 9 mi WSW 8.1 mph - -  
3:00 AM -32.8 °F -54.1 °F - N/A% 29.88 in 9.0 mi WSW 8.1 mph - N/A   Unknown
4:00 AM -34.6 °F -59.2 °F - N/A% 29.88 in 9.0 mi WSW 10.4 mph - N/A   Unknown
5:00 AM -32.8 °F -54.1 °F - N/A% 29.89 in 9.0 mi WSW 8.1 mph - N/A   Unknown
6:00 AM -36 °F - - % 29.88 in 9 mi West 12.7 mph - -  
7:00 AM -34.6 °F -56.3 °F - N/A% 29.89 in 9.0 mi WSW 8.1 mph - N/A   Unknown
8:00 AM -34.6 °F -50.3 °F - N/A% 29.88 in 7.0 mi West 4.6 mph - N/A   Unknown
9:00 AM -34 °F - - % 29.89 in 4 mi WSW 9.2 mph - -  
9:00 AM -34.6 °F -57.8 °F - N/A% 29.89 in 4.0 mi WSW 9.2 mph - N/A   Unknown
10:00 AM -34.6 °F -57.8 °F - N/A% 29.89 in 3.5 mi WSW 9.2 mph - N/A   Unknown
10:19 AM -32.8 °F -54.1 °F - N/A% 29.86 in 3.0 mi WSW 8.1 mph - N/A   Unknown
10:20 AM -32.8 °F -52.4 °F - N/A% 29.86 in 3.0 mi WSW 6.9 mph - N/A   Unknown
10:50 AM -34.6 °F -56.3 °F - N/A% 29.86 in 2.2 mi WSW 8.1 mph - N/A   Unknown
10:54 AM -34.6 °F -54.6 °F - N/A% 29.86 in 2.2 mi West 6.9 mph - N/A   Unknown
11:00 AM -34.6 °F -57.8 °F - N/A% 29.89 in 2.1 mi WSW 9.2 mph - N/A   Unknown
11:47 AM -32.8 °F -52.4 °F - N/A% 29.86 in 2.5 mi West 6.9 mph - N/A   Unknown
11:50 AM -32.8 °F -52.4 °F - N/A% 29.86 in 2.5 mi West 6.9 mph - N/A   Unknown
12:00 PM -34 °F - - % 29.90 in 2 mi West 6.9 mph - -  
12:00 PM -32.8 °F -52.4 °F - N/A% 29.90 in 2.5 mi WSW 6.9 mph - N/A   Unknown
12:55 PM -32.8 °F -50.5 °F - N/A% 29.86 in 2.0 mi West 5.8 mph - N/A   Unknown
12:57 PM -32.8 °F -52.4 °F - N/A% 29.86 in 2.0 mi West 6.9 mph - N/A   Unknown
1:00 PM -32.8 °F -54.1 °F - N/A% 29.89 in 2.0 mi WSW 8.1 mph - N/A   Unknown
2:00 PM -32.8 °F -52.4 °F - N/A% 29.90 in 2.0 mi West 6.9 mph - N/A   Unknown
3:00 PM -33 °F - - % 29.90 in 2 mi West 9.2 mph - -  
3:00 PM -32.8 °F -57.0 °F - N/A% 29.90 in 2.1 mi West 10.4 mph - N/A   Unknown
3:25 PM -32.8 °F -55.6 °F - N/A% 29.87 in 3.0 mi West 9.2 mph - N/A   Unknown
3:29 PM -32.8 °F -58.2 °F - N/A% 29.88 in 2.8 mi West 11.5 mph - N/A   Unknown
3:44 PM -32.8 °F -58.2 °F - N/A% 29.88 in 3.0 mi West 11.5 mph - N/A   Unknown
3:50 PM -32.8 °F -54.1 °F - N/A% 29.88 in 2.6 mi West 8.1 mph - N/A   Unknown
4:00 PM -32.8 °F -55.6 °F - N/A% 29.91 in 2.4 mi West 9.2 mph - N/A   Unknown
4:56 PM -34.6 °F -56.3 °F - N/A% 29.88 in 3.0 mi West 8.1 mph - N/A   Unknown
4:59 PM -34.6 °F -52.6 °F - N/A% 29.88 in 3.0 mi West 5.8 mph - N/A   Unknown
5:00 PM -34.6 °F -54.6 °F - N/A% 29.92 in 3.0 mi West 6.9 mph - N/A   Unknown
5:02 PM -34.6 °F -54.6 °F - N/A% 29.88 in 3.0 mi West 6.9 mph - N/A   Unknown
5:28 PM -34.6 °F -57.8 °F - N/A% 29.89 in 3.5 mi West 9.2 mph - N/A   Unknown
6:00 PM -35 °F - - % 29.92 in 4 mi West 8.1 mph - -  
6:00 PM -34.6 °F -56.3 °F - N/A% 29.92 in 4.0 mi West 8.1 mph - N/A   Unknown
6:21 PM -34.6 °F -56.3 °F - N/A% 29.89 in 3.5 mi West 8.1 mph - N/A   Unknown
6:34 PM -34.6 °F -57.8 °F - N/A% 29.89 in 3.0 mi West 9.2 mph - N/A   Unknown
6:41 PM -34.6 °F -57.8 °F - N/A% 29.89 in 3.0 mi West 9.2 mph - N/A   Unknown
6:45 PM -34.6 °F -57.8 °F - N/A% 29.89 in 3.0 mi West 9.2 mph - N/A   Unknown
7:00 PM -34.6 °F -56.3 °F - N/A% 29.92 in 2.2 mi West 8.1 mph - N/A   Unknown
8:00 PM -34.6 °F -60.5 °F - N/A% 29.92 in 2.1 mi WNW 11.5 mph - N/A   Unknown
9:00 PM -36 °F - - % 29.92 in 2 mi West 9.2 mph - -  
9:00 PM -36.4 °F -62.7 °F - N/A% 29.92 in 2.4 mi West 11.5 mph - N/A   Unknown
9:48 PM -36.4 °F -62.7 °F - N/A% 29.89 in 2.8 mi West 11.5 mph - N/A   Unknown
9:59 PM -36.4 °F -61.5 °F - N/A% 29.89 in 3.0 mi West 10.4 mph - N/A   Unknown
10:00 PM -36.4 °F -61.5 °F - N/A% 29.93 in 3.0 mi West 10.4 mph - N/A   Unknown
10:11 PM -36.4 °F -58.5 °F - N/A% 29.89 in 3.0 mi West 8.1 mph - N/A   Unknown
10:13 PM -36.4 °F -56.8 °F - N/A% 29.89 in 3.0 mi WNW 6.9 mph - N/A   Unknown
10:22 PM -36.4 °F -60.1 °F - N/A% 29.89 in 2.6 mi West 9.2 mph - N/A   Unknown
10:27 PM -36.4 °F -58.5 °F - N/A% 29.89 in 3.0 mi West 8.1 mph - N/A   Unknown
10:50 PM -34.6 °F -52.6 °F - N/A% 29.90 in 2.5 mi WSW 5.8 mph - N/A   Unknown
10:53 PM -34.6 °F -52.6 °F - N/A% 29.90 in 2.5 mi West 5.8 mph - N/A   Unknown
10:59 PM -36.4 °F -56.8 °F - N/A% 29.90 in 3.0 mi West 6.9 mph - N/A   Unknown
11:00 PM -36.4 °F -54.8 °F - N/A% 29.93 in 3.0 mi West 5.8 mph - N/A   Unknown
11:03 PM -34.6 °F -50.3 °F - N/A% 29.90 in 3.0 mi West 4.6 mph - N/A   Unknown
11:14 PM -34.6 °F -50.3 °F - N/A% 29.90 in 2.6 mi West 4.6 mph - N/A   Unknown
11:21 PM -34.6 °F -47.4 °F - N/A% 29.90 in 2.6 mi WSW 3.5 mph - N/A   Unknown